Location: Praha
(50.0830°N, 14.4670°E)
Time: 20:59:37
(UTC+02:00)

ISS - Pass Details

Date: 12 May 2021
Orbit: 418 x 421 km, 51.6° (Epoch: 07 May)

Event Time Altitude Azimuth Distance (km) Brightness Sun altitude
Exits shadow 01:18:16 39° 72° (ENE) 648 -2.7 -21.6°
Drops below altitude 10° 01:20:31 10° 75° (ENE) 1,506 -0.7 -21.6°
Sets 01:22:37 0° 76° (ENE) 2,372 0.3 -21.6°
